TimeCST,TemperatureF,Dew PointF,Humidity,Sea Level PressureIn,VisibilityMPH,Wind Direction,Wind SpeedMPH,Gust SpeedMPH,PrecipitationIn,Events,Conditions,WindDirDegrees,DateUTC
12:53 AM,3.9,-5.1,66,30.17,10.0,WNW,17.3,24.2,N/A,,Clear,290,2013-02-01 06:53:00
1:53 AM,3.0,-5.1,69,30.20,10.0,West,16.1,-,N/A,,Clear,280,2013-02-01 07:53:00
2:53 AM,1.9,-6.0,69,30.22,10.0,West,17.3,26.5,N/A,,Clear,280,2013-02-01 08:53:00
3:53 AM,1.0,-6.0,72,30.24,10.0,West,16.1,-,N/A,,Clear,280,2013-02-01 09:53:00
5:53 AM,-0.0,-8.0,69,30.29,10.0,WNW,15.0,-,N/A,,Clear,290,2013-02-01 11:53:00
6:53 AM,-0.9,-9.0,69,30.31,10.0,West,11.5,19.6,N/A,,Clear,280,2013-02-01 12:53:00
7:53 AM,-0.9,-9.0,69,30.32,10.0,West,16.1,-,N/A,,Clear,270,2013-02-01 13:53:00
8:53 AM,-0.0,-9.0,66,30.34,10.0,West,17.3,23.0,N/A,,Clear,280,2013-02-01 14:53:00
9:53 AM,1.9,-8.0,63,30.35,10.0,West,17.3,21.9,N/A,,Clear,270,2013-02-01 15:53:00
10:53 AM,3.0,-6.0,66,30.35,10.0,West,12.7,-,N/A,,Clear,280,2013-02-01 16:53:00
11:53 AM,6.1,-4.0,63,30.34,10.0,West,15.0,-,N/A,,Clear,260,2013-02-01 17:53:00
12:53 PM,7.0,-4.0,61,30.32,10.0,West,17.3,-,N/A,,Clear,260,2013-02-01 18:53:00
1:53 PM,8.1,-2.9,61,30.30,10.0,West,17.3,-,N/A,,Clear,260,2013-02-01 19:53:00
2:53 PM,8.1,-2.9,61,30.30,10.0,West,18.4,24.2,N/A,,Clear,260,2013-02-01 20:53:00
3:53 PM,8.1,-4.0,58,30.29,10.0,WSW,16.1,-,N/A,,Clear,250,2013-02-01 21:53:00
4:53 PM,7.0,-4.0,61,30.28,10.0,WSW,12.7,-,N/A,,Clear,250,2013-02-01 22:53:00
5:53 PM,8.1,-2.0,64,30.27,10.0,WSW,10.4,-,N/A,,Scattered Clouds,250,2013-02-01 23:53:00
6:53 PM,9.0,-0.9,64,30.27,10.0,WSW,12.7,-,N/A,,Overcast,250,2013-02-02 00:53:00
7:53 PM,10.0,-0.0,64,30.25,10.0,WSW,10.4,-,N/A,,Overcast,250,2013-02-02 01:53:00
8:53 PM,10.9,1.0,64,30.25,10.0,WSW,11.5,-,N/A,,Overcast,250,2013-02-02 02:53:00
9:11 PM,10.4,1.4,67,30.19,1.8,WSW,11.5,-,0.00,Snow,Light Snow,250,2013-02-02 03:11:00
9:25 PM,10.4,3.2,73,30.19,1.2,WSW,11.5,-,0.00,Snow,Light Snow,250,2013-02-02 03:25:00
9:53 PM,10.9,5.0,77,30.24,1.5,WSW,11.5,-,0.00,Snow,Light Snow,240,2013-02-02 03:53:00
10:53 PM,10.9,5.0,77,30.22,1.8,WSW,8.1,-,0.00,Snow,Light Snow,240,2013-02-02 04:53:00
11:00 PM,10.4,6.8,85,30.16,2.0,WSW,5.8,-,0.00,Snow,Light Snow,240,2013-02-02 05:00:00
11:39 PM,10.4,6.8,85,30.15,1.5,WSW,6.9,-,0.00,Snow,Light Snow,240,2013-02-02 05:39:00
11:53 PM,10.9,6.1,81,30.19,1.8,SW,5.8,-,0.00,Snow,Light Snow,220,2013-02-02 05:53:00